Weather History for Omaha Offutt, NE

Change the Weather History Date:

Sunday, February 3, 2013

  Actual Average Record
Temperature  
Mean Temperature 32 °F -  
Max Temperature 41 °F 34 °F 59 °F (2005)
Min Temperature 22 °F 17 °F -9 °F (2011)
Degree Days  
Heating Degree Days 34    
Moisture  
Dew Point 24 °F    
Average Humidity 74    
Maximum Humidity 99    
Minimum Humidity 54    
Precipitation  
Precipitation 0.00 in - - ()
Snow  
Snow 0.00 in - - ()
Snow Depth 1.00 in    
Sea Level Pressure  
Sea Level Pressure 30.08 in    
Wind  
Wind Speed 11 mph (SW)    
Max Wind Speed 17 mph    
Max Gust Speed 25 mph    
Visibility 10 miles    
Events      
Averages and records for this station are not official NWS values.
T = Trace of Precipitation, MM = Missing Value Source: NWS Daily Summary

Daily Weather History Graph

Daily Weather History Graph

Search for Another Location

Airport:

Trip Planner

Search our weather history database for the weather conditions in past years. The results will help you decide how hot, cold, wet, or windy it might be!

Date:

Astronomy

Feb. 03, 2013 Rise Set
Actual Time 7:32 AM CST 5:43 PM CST
Civil Twilight 7:03 AM CST 6:12 PM CST
Nautical Twilight 6:30 AM CST 6:45 PM CST
Astronomical Twilight 5:58 AM CST 7:17 PM CST
Moon 1:01 AM CST (2/3) 11:20 AM CST (2/3)
Length of Visible Light 11h 09m
Length of Day
10h 11m
Waning Gibbous, 48% of the Moon is Illuminated
Feb 3
Waning Gibbous
Feb 10
New
Feb 17
First Quarter
Feb 25
Full
Mar 4
Last Quarter

Hourly Weather History & Observations

Time (CST) Temp. Windchill Dew Point Humidity Pressure Visibility Wind Dir Wind Speed Gust Speed Precip Events Conditions
12:55 AM 34.7 °F 24.7 °F 28.2 °F 77% 30.18 in 10.0 mi NNW 16.1 mph 24.2 mph N/A   Mostly Cloudy
1:55 AM 32.4 °F 21.7 °F 25.9 °F 77% 30.21 in 10.0 mi NW 16.1 mph 25.3 mph N/A   Clear
2:55 AM 30.4 °F 19.1 °F 23.7 °F 76% 30.22 in 10.0 mi WNW 16.1 mph - N/A   Clear
3:55 AM 26.4 °F 17.3 °F 19.9 °F 77% 30.21 in 10.0 mi NW 9.2 mph - N/A   Clear
4:55 AM 26.8 °F 14.1 °F 16.2 °F 64% 30.24 in 10.0 mi NW 17.3 mph 24.2 mph N/A   Clear
5:55 AM 25.0 °F 16.3 °F 16.5 °F 70% 30.25 in 10.0 mi NW 8.1 mph - N/A   Clear
6:55 AM 23.9 °F 13.5 °F 15.1 °F 69% 30.24 in 10.0 mi WNW 10.4 mph - N/A   Clear
7:55 AM 22.5 °F 16.3 °F 15.8 °F 76% 30.27 in 10.0 mi WNW 4.6 mph - N/A   Clear
8:55 AM 24.8 °F 20.5 °F 17.2 °F 73% 30.26 in 10.0 mi SW 3.5 mph - N/A   Clear
9:55 AM 28.9 °F 23.9 °F 16.9 °F 61% 30.22 in 10.0 mi West 4.6 mph - N/A   Clear
10:55 AM 32.2 °F 25.0 °F 19.0 °F 58% 30.19 in 10.0 mi South 8.1 mph - N/A   Clear
11:55 AM 34.0 °F 27.2 °F 22.1 °F 62% 30.15 in 10.0 mi SSW 8.1 mph - N/A   Clear
12:55 PM 36.9 °F 28.2 °F 24.3 °F 60% 30.11 in 10.0 mi South 13.8 mph - N/A   Clear
1:55 PM 38.5 °F 30.7 °F 25.7 °F 60% 30.07 in 10.0 mi South 12.7 mph 21.9 mph N/A   Clear
2:55 PM 40.5 °F 34.6 °F 25.2 °F 54% 30.02 in 10.0 mi South 9.2 mph - N/A   Clear
3:55 PM 41.7 °F 35.2 °F 28.6 °F 60% 29.99 in 10.0 mi South 11.5 mph - N/A   Clear
4:55 PM 39.2 °F 34.2 °F 30.6 °F 71% 29.95 in 10.0 mi South 6.9 mph - N/A   Clear
5:55 PM 37.0 °F - 29.8 °F 75% 29.94 in 10.0 mi Calm Calm - N/A   Clear
6:55 PM 34.7 °F 29.6 °F 29.8 °F 82% 29.92 in 10.0 mi SSE 5.8 mph - N/A   Clear
7:55 PM 34.9 °F 32.0 °F 29.7 °F 81% 29.91 in 10.0 mi SE 3.5 mph - N/A   Clear
8:55 PM 30.2 °F 25.4 °F 30.0 °F 99% 29.90 in 10.0 mi SE 4.6 mph - N/A   Clear
9:55 PM 32.0 °F 26.4 °F 31.5 °F 98% 29.86 in 10.0 mi ESE 5.8 mph - N/A   Clear
10:55 PM 30.6 °F 25.8 °F 29.8 °F 97% 29.83 in 10.0 mi ESE 4.6 mph - N/A   Clear
11:55 PM 32.0 °F - 29.5 °F 90% 29.81 in 10.0 mi Calm Calm - N/A   Clear